contact:dominique.lefevre@mio.osupytheas.fr, maurice.libes@osupytheas.fr, didier.mallarino@osupytheas.fr
Project:EMSO http://www.emso-fr.org/EMSO-France
Depth: 2436.0 m
Title:EMSO Ligure Ouest : Data MII capteur MICROCAT
DateTime_Computer,Latitude,Longitude,Temperature,Conductivity,Pressure,DateTime_Instrument
DateTime_Computer,Latitude,Longitude,degC,S m-1,dbar,DateTime_Instrument
2019-12-13T00:01:57Z,42.805,6.029,13.2961,4.59961,2469.723,2019-12-13T02:02:27Z
2019-12-13T00:05:01Z,42.805,6.029,13.2965,4.59960,2469.737,2019-12-13T02:05:31Z
2019-12-13T00:08:04Z,42.805,6.029,13.2964,4.59961,2469.75,2019-12-13T02:08:34Z
2019-12-13T00:11:07Z,42.805,6.029,13.2966,4.59961,2469.76,2019-12-13T02:11:37Z
2019-12-13T00:14:10Z,42.805,6.029,13.2963,4.59961,2469.76,2019-12-13T02:14:40Z
2019-12-13T00:17:13Z,42.805,6.029,13.2964,4.59961,2469.713,2019-12-13T02:17:43Z
2019-12-13T00:20:17Z,42.805,6.029,13.2960,4.59961,2469.773,2019-12-13T02:20:46Z
2019-12-13T00:23:20Z,42.805,6.029,13.2966,4.59961,2469.783,2019-12-13T02:23:50Z
2019-12-13T00:26:23Z,42.805,6.029,13.2962,4.59961,2469.773,2019-12-13T02:26:53Z
2019-12-13T00:29:26Z,42.805,6.029,13.2965,4.59961,2469.773,2019-12-13T02:29:56Z
2019-12-13T00:32:29Z,42.805,6.029,13.2966,4.59960,2469.75,2019-12-13T02:32:59Z
2019-12-13T00:35:33Z,42.805,6.029,13.2965,4.59961,2469.737,2019-12-13T02:36:03Z
2019-12-13T00:38:36Z,42.805,6.029,13.2963,4.59961,2469.713,2019-12-13T02:39:06Z
2019-12-13T00:41:40Z,42.805,6.029,13.2959,4.59962,2469.704,2019-12-13T02:42:10Z
2019-12-13T00:44:43Z,42.805,6.029,13.2961,4.59961,2469.773,2019-12-13T02:45:13Z
2019-12-13T00:47:46Z,42.805,6.029,13.2966,4.59961,2469.713,2019-12-13T02:48:16Z
2019-12-13T00:50:49Z,42.805,6.029,13.2966,4.59961,2469.727,2019-12-13T02:51:19Z
2019-12-13T00:53:53Z,42.805,6.029,13.2962,4.59961,2469.737,2019-12-13T02:54:22Z
2019-12-13T00:56:56Z,42.805,6.029,13.2961,4.59962,2469.737,2019-12-13T02:57:26Z
2019-12-13T00:59:59Z,42.805,6.029,13.2960,4.59961,2469.737,2019-12-13T03:00:29Z
2019-12-13T01:03:02Z,42.805,6.029,13.2964,4.59961,2469.727,2019-12-13T03:03:32Z
2019-12-13T01:06:05Z,42.805,6.029,13.2964,4.59961,2469.737,2019-12-13T03:06:35Z
2019-12-13T01:09:09Z,42.805,6.029,13.2967,4.59961,2469.727,2019-12-13T03:09:39Z
2019-12-13T01:12:12Z,42.805,6.029,13.2963,4.59961,2469.727,2019-12-13T03:12:42Z
2019-12-13T01:15:15Z,42.805,6.029,13.2966,4.59961,2469.727,2019-12-13T03:15:45Z
2019-12-13T01:18:18Z,42.805,6.029,13.2967,4.59961,2469.75,2019-12-13T03:18:48Z
2019-12-13T01:21:21Z,42.805,6.029,13.2962,4.59961,2469.713,2019-12-13T03:21:51Z
2019-12-13T01:24:25Z,42.805,6.029,13.2963,4.59961,2469.75,2019-12-13T03:24:55Z
2019-12-13T01:27:28Z,42.805,6.029,13.2968,4.59961,2469.75,2019-12-13T03:27:58Z
2019-12-13T01:30:31Z,42.805,6.029,13.2964,4.59961,2469.69,2019-12-13T03:31:01Z
2019-12-13T01:33:34Z,42.805,6.029,13.2961,4.59962,2469.704,2019-12-13T03:34:04Z
2019-12-13T01:36:37Z,42.805,6.029,13.2963,4.59961,2469.713,2019-12-13T03:37:07Z
2019-12-13T01:39:41Z,42.805,6.029,13.2964,4.59961,2469.75,2019-12-13T03:40:11Z
2019-12-13T01:42:44Z,42.805,6.029,13.2967,4.59961,2469.713,2019-12-13T03:43:14Z
2019-12-13T01:45:47Z,42.805,6.029,13.2964,4.59961,2469.713,2019-12-13T03:46:17Z
2019-12-13T01:48:50Z,42.805,6.029,13.2964,4.59961,2469.737,2019-12-13T03:49:20Z
2019-12-13T01:51:54Z,42.805,6.029,13.2967,4.59961,2469.713,2019-12-13T03:52:23Z
2019-12-13T01:54:57Z,42.805,6.029,13.2961,4.59961,2469.76,2019-12-13T03:55:27Z
2019-12-13T01:58:00Z,42.805,6.029,13.2961,4.59961,2469.737,2019-12-13T03:58:30Z
2019-12-13T02:01:03Z,42.805,6.029,13.2965,4.59961,2469.773,2019-12-13T04:01:33Z
2019-12-13T02:04:06Z,42.805,6.029,13.2964,4.59961,2469.773,2019-12-13T04:04:36Z
2019-12-13T02:07:09Z,42.805,6.029,13.2960,4.59960,2469.69,2019-12-13T04:07:39Z
2019-12-13T02:10:13Z,42.805,6.029,13.2963,4.59961,2469.713,2019-12-13T04:10:43Z
2019-12-13T02:13:16Z,42.805,6.029,13.2963,4.59961,2469.713,2019-12-13T04:13:46Z
2019-12-13T02:16:19Z,42.805,6.029,13.2961,4.59961,2469.704,2019-12-13T04:16:49Z
2019-12-13T02:19:23Z,42.805,6.029,13.2960,4.59961,2469.667,2019-12-13T04:19:53Z
2019-12-13T02:22:26Z,42.805,6.029,13.2965,4.59961,2469.773,2019-12-13T04:22:56Z
2019-12-13T02:25:29Z,42.805,6.029,13.2962,4.59961,2469.713,2019-12-13T04:25:59Z
2019-12-13T02:28:32Z,42.805,6.029,13.2964,4.59961,2469.75,2019-12-13T04:29:02Z
2019-12-13T02:31:36Z,42.805,6.029,13.2966,4.59961,2469.75,2019-12-13T04:32:05Z
2019-12-13T02:34:39Z,42.805,6.029,13.2962,4.59962,2469.704,2019-12-13T04:35:09Z
2019-12-13T02:37:42Z,42.805,6.029,13.2965,4.59961,2469.76,2019-12-13T04:38:12Z
2019-12-13T02:40:45Z,42.805,6.029,13.2964,4.59961,2469.737,2019-12-13T04:41:15Z
2019-12-13T02:43:49Z,42.805,6.029,13.2961,4.59961,2469.76,2019-12-13T04:44:18Z
2019-12-13T02:46:52Z,42.805,6.029,13.2963,4.59961,2469.713,2019-12-13T04:47:22Z
2019-12-13T02:49:55Z,42.805,6.029,13.2963,4.59961,2469.737,2019-12-13T04:50:25Z
2019-12-13T02:52:58Z,42.805,6.029,13.2964,4.59961,2469.75,2019-12-13T04:53:28Z
2019-12-13T02:56:01Z,42.805,6.029,13.2960,4.59961,2469.69,2019-12-13T04:56:31Z
2019-12-13T02:59:05Z,42.805,6.029,13.2962,4.59961,2469.713,2019-12-13T04:59:35Z
2019-12-13T03:02:08Z,42.805,6.029,13.2960,4.59961,2469.75,2019-12-13T05:02:38Z
2019-12-13T03:05:11Z,42.805,6.029,13.2964,4.59961,2469.737,2019-12-13T05:05:41Z
2019-12-13T03:08:14Z,42.805,6.029,13.2961,4.59961,2469.737,2019-12-13T05:08:44Z
2019-12-13T03:11:18Z,42.805,6.029,13.2962,4.59961,2469.797,2019-12-13T05:11:47Z
2019-12-13T03:14:21Z,42.805,6.029,13.2961,4.59961,2469.76,2019-12-13T05:14:51Z
2019-12-13T03:17:24Z,42.805,6.029,13.2964,4.59961,2469.75,2019-12-13T05:17:54Z
2019-12-13T03:20:27Z,42.805,6.029,13.2965,4.59961,2469.76,2019-12-13T05:20:57Z
2019-12-13T03:23:30Z,42.805,6.029,13.2965,4.59961,2469.76,2019-12-13T05:24:00Z
2019-12-13T03:26:34Z,42.805,6.029,13.2963,4.59961,2469.773,2019-12-13T05:27:03Z
2019-12-13T03:29:37Z,42.805,6.029,13.2964,4.59961,2469.773,2019-12-13T05:30:07Z
2019-12-13T03:32:40Z,42.805,6.029,13.2963,4.59962,2469.75,2019-12-13T05:33:10Z
2019-12-13T03:35:43Z,42.805,6.029,13.2965,4.59961,2469.783,2019-12-13T05:36:13Z
2019-12-13T03:38:46Z,42.805,6.029,13.2961,4.59961,2469.783,2019-12-13T05:39:16Z
2019-12-13T03:41:50Z,42.805,6.029,13.2964,4.59961,2469.783,2019-12-13T05:42:19Z
2019-12-13T03:44:53Z,42.805,6.029,13.2961,4.59961,2469.76,2019-12-13T05:45:23Z
2019-12-13T03:47:56Z,42.805,6.029,13.2967,4.59961,2469.806,2019-12-13T05:48:26Z
2019-12-13T03:50:59Z,42.805,6.029,13.2966,4.59961,2469.821,2019-12-13T05:51:29Z
2019-12-13T03:54:02Z,42.805,6.029,13.2963,4.59960,2469.769,2019-12-13T05:54:32Z
2019-12-13T03:57:06Z,42.805,6.029,13.2965,4.59961,2469.76,2019-12-13T05:57:36Z
2019-12-13T04:00:09Z,42.805,6.029,13.2961,4.59960,2469.783,2019-12-13T06:00:39Z
2019-12-13T04:03:12Z,42.805,6.029,13.2961,4.59960,2469.783,2019-12-13T06:03:42Z
2019-12-13T04:06:15Z,42.805,6.029,13.2961,4.59960,2469.821,2019-12-13T06:06:45Z
2019-12-13T04:09:19Z,42.805,6.029,13.2961,4.59960,2469.806,2019-12-13T06:09:48Z
2019-12-13T04:12:22Z,42.805,6.029,13.2961,4.59961,2469.83,2019-12-13T06:12:52Z
2019-12-13T04:15:25Z,42.805,6.029,13.2965,4.59961,2469.797,2019-12-13T06:15:55Z
2019-12-13T04:18:28Z,42.805,6.029,13.2963,4.59961,2469.821,2019-12-13T06:18:58Z
2019-12-13T04:21:31Z,42.805,6.029,13.2967,4.59961,2469.806,2019-12-13T06:22:01Z
2019-12-13T04:24:35Z,42.805,6.029,13.2964,4.59961,2469.797,2019-12-13T06:25:05Z
2019-12-13T04:27:38Z,42.805,6.029,13.2960,4.59961,2469.83,2019-12-13T06:28:08Z
2019-12-13T04:30:41Z,42.805,6.029,13.2966,4.59961,2469.793,2019-12-13T06:31:11Z
2019-12-13T04:33:44Z,42.805,6.029,13.2964,4.59961,2469.83,2019-12-13T06:34:14Z
2019-12-13T04:36:48Z,42.805,6.029,13.2962,4.59961,2469.844,2019-12-13T06:37:18Z
2019-12-13T04:39:51Z,42.805,6.029,13.2958,4.59961,2469.806,2019-12-13T06:40:21Z
2019-12-13T04:42:54Z,42.805,6.029,13.2965,4.59961,2469.853,2019-12-13T06:43:24Z
2019-12-13T04:45:58Z,42.805,6.029,13.2961,4.59961,2469.867,2019-12-13T06:46:28Z
2019-12-13T04:49:01Z,42.805,6.029,13.2966,4.59961,2469.853,2019-12-13T06:49:31Z
2019-12-13T04:52:04Z,42.805,6.029,13.2967,4.59960,2469.853,2019-12-13T06:52:34Z
2019-12-13T04:55:07Z,42.805,6.029,13.2961,4.59961,2469.876,2019-12-13T06:55:37Z
2019-12-13T04:58:11Z,42.805,6.029,13.2965,4.59960,2469.853,2019-12-13T06:58:40Z
2019-12-13T05:01:14Z,42.805,6.029,13.2965,4.59961,2469.83,2019-12-13T07:01:44Z
2019-12-13T05:04:17Z,42.805,6.029,13.2961,4.59961,2469.89,2019-12-13T07:04:47Z
2019-12-13T05:07:20Z,42.805,6.029,13.2961,4.59961,2469.914,2019-12-13T07:07:50Z
2019-12-13T05:10:23Z,42.805,6.029,13.2962,4.59961,2469.914,2019-12-13T07:10:53Z
2019-12-13T05:13:27Z,42.805,6.029,13.2965,4.59961,2469.853,2019-12-13T07:13:57Z
2019-12-13T05:16:30Z,42.805,6.029,13.2963,4.59961,2469.876,2019-12-13T07:17:00Z
2019-12-13T05:19:33Z,42.805,6.029,13.2964,4.59961,2469.937,2019-12-13T07:20:03Z
2019-12-13T05:22:36Z,42.805,6.029,13.2965,4.59963,2469.876,2019-12-13T07:23:06Z
2019-12-13T05:25:39Z,42.805,6.029,13.2964,4.59961,2469.9,2019-12-13T07:26:09Z
2019-12-13T05:28:43Z,42.805,6.029,13.2959,4.59961,2469.914,2019-12-13T07:29:13Z
2019-12-13T05:31:46Z,42.805,6.029,13.2964,4.59962,2469.914,2019-12-13T07:32:16Z
2019-12-13T05:34:49Z,42.805,6.029,13.2964,4.59962,2469.914,2019-12-13T07:35:19Z
2019-12-13T05:37:52Z,42.805,6.029,13.2961,4.59961,2469.96,2019-12-13T07:38:22Z
2019-12-13T05:40:56Z,42.805,6.029,13.2961,4.59961,2469.923,2019-12-13T07:41:25Z
2019-12-13T05:43:59Z,42.805,6.029,13.2964,4.59962,2469.923,2019-12-13T07:44:29Z
2019-12-13T05:47:02Z,42.805,6.029,13.2961,4.59961,2469.9,2019-12-13T07:47:32Z
2019-12-13T05:50:05Z,42.805,6.029,13.2960,4.59961,2469.937,2019-12-13T07:50:35Z
2019-12-13T05:53:08Z,42.805,6.029,13.2964,4.59961,2469.923,2019-12-13T07:53:38Z
2019-12-13T05:56:12Z,42.805,6.029,13.2962,4.59961,2469.947,2019-12-13T07:56:41Z
2019-12-13T05:59:15Z,42.805,6.029,13.2962,4.59961,2469.947,2019-12-13T07:59:45Z
2019-12-13T06:02:18Z,42.805,6.029,13.2963,4.59961,2469.886,2019-12-13T08:02:48Z
2019-12-13T06:05:21Z,42.805,6.029,13.2965,4.59961,2469.947,2019-12-13T08:05:51Z
2019-12-13T06:08:24Z,42.805,6.029,13.2961,4.59961,2469.96,2019-12-13T08:08:54Z
2019-12-13T06:11:27Z,42.805,6.029,13.2964,4.59961,2469.937,2019-12-13T08:11:57Z
2019-12-13T06:14:31Z,42.805,6.029,13.2964,4.59961,2469.96,2019-12-13T08:15:00Z
2019-12-13T06:17:34Z,42.805,6.029,13.2964,4.59961,2469.947,2019-12-13T08:18:04Z
2019-12-13T06:20:37Z,42.805,6.029,13.2961,4.59961,2469.984,2019-12-13T08:21:07Z
2019-12-13T06:23:40Z,42.805,6.029,13.2964,4.59960,2470.03,2019-12-13T08:24:10Z
2019-12-13T06:26:43Z,42.805,6.029,13.2958,4.59960,2469.984,2019-12-13T08:27:13Z
2019-12-13T06:29:47Z,42.805,6.029,13.2958,4.59960,2470.003,2019-12-13T08:30:16Z
2019-12-13T06:32:50Z,42.805,6.029,13.2964,4.59961,2469.97,2019-12-13T08:33:20Z
2019-12-13T06:35:53Z,42.805,6.029,13.2963,4.59960,2469.993,2019-12-13T08:36:23Z
2019-12-13T06:38:56Z,42.805,6.029,13.2962,4.59961,2469.984,2019-12-13T08:39:26Z
2019-12-13T06:41:59Z,42.805,6.029,13.2964,4.59961,2470.007,2019-12-13T08:42:29Z
2019-12-13T06:45:03Z,42.805,6.029,13.2959,4.59960,2469.993,2019-12-13T08:45:32Z
2019-12-13T06:48:06Z,42.805,6.029,13.2961,4.59961,2469.993,2019-12-13T08:48:36Z
2019-12-13T06:51:09Z,42.805,6.029,13.2961,4.59961,2470.007,2019-12-13T08:51:39Z
2019-12-13T06:54:12Z,42.805,6.029,13.2959,4.59961,2469.947,2019-12-13T08:54:42Z
2019-12-13T06:57:15Z,42.805,6.029,13.2964,4.59960,2470.03,2019-12-13T08:57:45Z
2019-12-13T07:00:19Z,42.805,6.029,13.2959,4.59960,2470.007,2019-12-13T09:00:48Z
2019-12-13T07:03:22Z,42.805,6.029,13.2961,4.59960,2469.997,2019-12-13T09:03:52Z
2019-12-13T07:06:25Z,42.805,6.029,13.2959,4.59961,2469.993,2019-12-13T09:06:55Z
2019-12-13T07:09:28Z,42.805,6.029,13.2964,4.59961,2469.993,2019-12-13T09:09:58Z
2019-12-13T07:12:31Z,42.805,6.029,13.2961,4.59961,2470.017,2019-12-13T09:13:01Z
2019-12-13T07:15:34Z,42.805,6.029,13.2962,4.59961,2470.017,2019-12-13T09:16:04Z
2019-12-13T07:18:38Z,42.805,6.029,13.2964,4.59960,2470.007,2019-12-13T09:19:08Z
2019-12-13T07:21:41Z,42.805,6.029,13.2965,4.59961,2469.993,2019-12-13T09:22:11Z
2019-12-13T07:24:44Z,42.805,6.029,13.2961,4.59962,2470.03,2019-12-13T09:25:14Z
2019-12-13T07:27:47Z,42.805,6.029,13.2961,4.59961,2470.007,2019-12-13T09:28:17Z
2019-12-13T07:30:50Z,42.805,6.029,13.2962,4.59961,2470.017,2019-12-13T09:31:20Z
2019-12-13T07:33:54Z,42.805,6.029,13.2964,4.59961,2470.04,2019-12-13T09:34:23Z
2019-12-13T07:36:57Z,42.805,6.029,13.2962,4.59961,2470.03,2019-12-13T09:37:27Z
2019-12-13T07:40:00Z,42.805,6.029,13.2960,4.59960,2470.03,2019-12-13T09:40:30Z
2019-12-13T07:43:03Z,42.805,6.029,13.2963,4.59961,2469.97,2019-12-13T09:43:33Z
2019-12-13T07:46:06Z,42.805,6.029,13.2961,4.59960,2470.017,2019-12-13T09:46:36Z
2019-12-13T07:49:09Z,42.805,6.029,13.2962,4.59961,2470.017,2019-12-13T09:49:39Z
2019-12-13T07:52:13Z,42.805,6.029,13.2961,4.59961,2470.03,2019-12-13T09:52:43Z
2019-12-13T07:55:16Z,42.805,6.029,13.2964,4.59961,2470.04,2019-12-13T09:55:46Z
2019-12-13T07:58:19Z,42.805,6.029,13.2961,4.59960,2470.007,2019-12-13T09:58:49Z
2019-12-13T08:01:22Z,42.805,6.029,13.2964,4.59960,2470.017,2019-12-13T10:01:52Z
2019-12-13T08:04:25Z,42.805,6.029,13.2958,4.59961,2470.053,2019-12-13T10:04:55Z
2019-12-13T08:07:29Z,42.805,6.029,13.2963,4.59961,2469.993,2019-12-13T10:07:58Z
2019-12-13T08:10:32Z,42.805,6.029,13.2961,4.59960,2470.007,2019-12-13T10:11:02Z
2019-12-13T08:13:35Z,42.805,6.029,13.2959,4.59961,2470.017,2019-12-13T10:14:05Z
2019-12-13T08:16:38Z,42.805,6.029,13.2966,4.59961,2470.017,2019-12-13T10:17:08Z
2019-12-13T08:19:41Z,42.805,6.029,13.2965,4.59961,2470.03,2019-12-13T10:20:11Z
2019-12-13T08:22:45Z,42.805,6.029,13.2963,4.59961,2470.03,2019-12-13T10:23:14Z
2019-12-13T08:25:48Z,42.805,6.029,13.2959,4.59961,2470.017,2019-12-13T10:26:18Z
2019-12-13T08:28:51Z,42.805,6.029,13.2964,4.59961,2470.017,2019-12-13T10:29:21Z
2019-12-13T08:31:54Z,42.805,6.029,13.2964,4.59961,2469.993,2019-12-13T10:32:24Z
2019-12-13T08:34:57Z,42.805,6.029,13.2961,4.59960,2470.017,2019-12-13T10:35:27Z
2019-12-13T08:38:00Z,42.805,6.029,13.2965,4.59961,2469.993,2019-12-13T10:38:30Z
2019-12-13T08:41:04Z,42.805,6.029,13.2961,4.59960,2470.007,2019-12-13T10:41:34Z
2019-12-13T08:44:07Z,42.805,6.029,13.2961,4.59961,2469.993,2019-12-13T10:44:37Z
2019-12-13T08:47:10Z,42.805,6.029,13.2959,4.59961,2470.017,2019-12-13T10:47:40Z
2019-12-13T08:50:13Z,42.805,6.029,13.2962,4.59961,2470.053,2019-12-13T10:50:43Z
2019-12-13T08:53:17Z,42.805,6.029,13.2961,4.59961,2469.993,2019-12-13T10:53:47Z
2019-12-13T08:56:20Z,42.805,6.029,13.2963,4.59961,2469.97,2019-12-13T10:56:50Z
2019-12-13T08:59:23Z,42.805,6.029,13.2961,4.59961,2470.017,2019-12-13T10:59:53Z
2019-12-13T09:02:26Z,42.805,6.029,13.2964,4.59961,2470.017,2019-12-13T11:02:56Z
2019-12-13T09:05:29Z,42.805,6.029,13.2961,4.59961,2470.04,2019-12-13T11:05:59Z
2019-12-13T09:08:33Z,42.805,6.029,13.2964,4.59961,2470.03,2019-12-13T11:09:02Z
2019-12-13T09:11:36Z,42.805,6.029,13.2961,4.59961,2469.993,2019-12-13T11:12:06Z
2019-12-13T09:14:39Z,42.805,6.029,13.2963,4.59961,2470.053,2019-12-13T11:15:09Z
2019-12-13T09:17:42Z,42.805,6.029,13.2964,4.59961,2469.993,2019-12-13T11:18:12Z
2019-12-13T09:20:45Z,42.805,6.029,13.2961,4.59960,2469.993,2019-12-13T11:21:15Z
2019-12-13T09:23:48Z,42.805,6.029,13.2961,4.59961,2469.97,2019-12-13T11:24:18Z
2019-12-13T09:26:52Z,42.805,6.029,13.2959,4.59960,2470.017,2019-12-13T11:27:22Z
2019-12-13T09:29:55Z,42.805,6.029,13.2961,4.59961,2469.993,2019-12-13T11:30:25Z
2019-12-13T09:32:58Z,42.805,6.029,13.2964,4.59961,2470.017,2019-12-13T11:33:28Z
2019-12-13T09:36:01Z,42.805,6.029,13.2959,4.59961,2469.993,2019-12-13T11:36:31Z
2019-12-13T09:39:04Z,42.805,6.029,13.2964,4.59961,2469.97,2019-12-13T11:39:34Z
2019-12-13T09:42:08Z,42.805,6.029,13.2961,4.59961,2469.97,2019-12-13T11:42:37Z
2019-12-13T09:45:11Z,42.805,6.029,13.2959,4.59961,2470.007,2019-12-13T11:45:41Z
2019-12-13T09:48:14Z,42.805,6.029,13.2961,4.59961,2469.97,2019-12-13T11:48:44Z
2019-12-13T09:51:17Z,42.805,6.029,13.2965,4.59961,2469.984,2019-12-13T11:51:47Z
2019-12-13T09:54:20Z,42.805,6.029,13.2959,4.59961,2469.97,2019-12-13T11:54:50Z
2019-12-13T09:57:23Z,42.805,6.029,13.2962,4.59961,2469.97,2019-12-13T11:57:53Z
2019-12-13T10:00:27Z,42.805,6.029,13.2961,4.59961,2469.97,2019-12-13T12:00:57Z
2019-12-13T10:03:30Z,42.805,6.029,13.2960,4.59960,2469.97,2019-12-13T12:04:00Z
2019-12-13T10:06:33Z,42.805,6.029,13.2963,4.59961,2469.984,2019-12-13T12:07:03Z
2019-12-13T10:09:36Z,42.805,6.029,13.2964,4.59961,2469.947,2019-12-13T12:10:06Z
2019-12-13T10:12:39Z,42.805,6.029,13.2962,4.59961,2469.993,2019-12-13T12:13:09Z
2019-12-13T10:15:43Z,42.805,6.029,13.2964,4.59961,2469.97,2019-12-13T12:16:12Z
2019-12-13T10:18:46Z,42.805,6.029,13.2964,4.59961,2469.937,2019-12-13T12:19:16Z
2019-12-13T10:21:49Z,42.805,6.029,13.2963,4.59961,2469.9,2019-12-13T12:22:19Z
2019-12-13T10:24:53Z,42.805,6.029,13.2961,4.59961,2469.993,2019-12-13T12:25:23Z
2019-12-13T10:27:56Z,42.805,6.029,13.2964,4.59961,2469.947,2019-12-13T12:28:26Z
2019-12-13T10:30:59Z,42.805,6.029,13.2965,4.59961,2469.947,2019-12-13T12:31:29Z
2019-12-13T10:34:02Z,42.805,6.029,13.2962,4.59961,2469.97,2019-12-13T12:34:32Z
2019-12-13T10:37:05Z,42.805,6.029,13.2960,4.59962,2469.933,2019-12-13T12:37:35Z
2019-12-13T10:40:09Z,42.805,6.029,13.2959,4.59961,2469.979,2019-12-13T12:40:38Z
2019-12-13T10:43:12Z,42.805,6.029,13.2963,4.59961,2469.97,2019-12-13T12:43:42Z
2019-12-13T10:46:15Z,42.805,6.029,13.2962,4.59961,2469.947,2019-12-13T12:46:45Z
2019-12-13T10:49:18Z,42.805,6.029,13.2961,4.59961,2469.97,2019-12-13T12:49:48Z
2019-12-13T10:52:21Z,42.805,6.029,13.2963,4.59961,2469.923,2019-12-13T12:52:51Z
2019-12-13T10:55:25Z,42.805,6.029,13.2962,4.59961,2469.937,2019-12-13T12:55:55Z
2019-12-13T10:58:28Z,42.805,6.029,13.2960,4.59961,2469.947,2019-12-13T12:58:58Z
2019-12-13T11:01:31Z,42.805,6.029,13.2967,4.59961,2469.923,2019-12-13T13:02:01Z
2019-12-13T11:04:35Z,42.805,6.029,13.2964,4.59961,2469.937,2019-12-13T13:05:05Z
2019-12-13T11:07:38Z,42.805,6.029,13.2964,4.59961,2469.96,2019-12-13T13:08:08Z
2019-12-13T11:10:41Z,42.805,6.029,13.2963,4.59961,2469.923,2019-12-13T13:11:11Z
2019-12-13T11:13:44Z,42.805,6.029,13.2963,4.59961,2469.947,2019-12-13T13:14:14Z
2019-12-13T11:16:47Z,42.805,6.029,13.2962,4.59962,2469.96,2019-12-13T13:17:17Z
2019-12-13T11:19:51Z,42.805,6.029,13.2968,4.59962,2469.96,2019-12-13T13:20:20Z
2019-12-13T11:22:54Z,42.805,6.029,13.2960,4.59962,2469.9,2019-12-13T13:23:24Z
2019-12-13T11:25:57Z,42.805,6.029,13.2965,4.59962,2469.937,2019-12-13T13:26:27Z
2019-12-13T11:29:00Z,42.805,6.029,13.2963,4.59962,2469.9,2019-12-13T13:29:30Z
2019-12-13T11:32:03Z,42.805,6.029,13.2965,4.59961,2469.914,2019-12-13T13:32:33Z
2019-12-13T11:35:06Z,42.805,6.029,13.2966,4.59962,2469.914,2019-12-13T13:35:36Z
2019-12-13T11:38:10Z,42.805,6.029,13.2961,4.59962,2469.914,2019-12-13T13:38:40Z
2019-12-13T11:41:13Z,42.805,6.029,13.2961,4.59962,2469.923,2019-12-13T13:41:43Z
2019-12-13T11:44:16Z,42.805,6.029,13.2965,4.59962,2469.9,2019-12-13T13:44:46Z
2019-12-13T11:47:19Z,42.805,6.029,13.2967,4.59962,2469.914,2019-12-13T13:47:49Z
2019-12-13T11:50:22Z,42.805,6.029,13.2967,4.59962,2469.89,2019-12-13T13:50:52Z
2019-12-13T11:53:26Z,42.805,6.029,13.2961,4.59962,2469.876,2019-12-13T13:53:55Z
2019-12-13T11:56:29Z,42.805,6.029,13.2961,4.59961,2469.923,2019-12-13T13:56:59Z
2019-12-13T11:59:32Z,42.805,6.029,13.2966,4.59962,2469.9,2019-12-13T14:00:02Z
2019-12-13T12:02:35Z,42.805,6.029,13.2962,4.59961,2469.923,2019-12-13T14:03:05Z
2019-12-13T12:05:38Z,42.805,6.029,13.2964,4.59962,2469.876,2019-12-13T14:06:08Z
2019-12-13T12:08:42Z,42.805,6.029,13.2968,4.59961,2469.89,2019-12-13T14:09:11Z
2019-12-13T12:11:45Z,42.805,6.029,13.2964,4.59963,2469.876,2019-12-13T14:12:15Z
2019-12-13T12:14:48Z,42.805,6.029,13.2967,4.59962,2469.876,2019-12-13T14:15:18Z
2019-12-13T12:17:51Z,42.805,6.029,13.2964,4.59962,2469.876,2019-12-13T14:18:21Z
2019-12-13T12:20:54Z,42.805,6.029,13.2967,4.59961,2469.9,2019-12-13T14:21:24Z
2019-12-13T12:23:58Z,42.805,6.029,13.2965,4.59962,2469.853,2019-12-13T14:24:27Z
2019-12-13T12:27:01Z,42.805,6.029,13.2961,4.59961,2469.876,2019-12-13T14:27:31Z
2019-12-13T12:30:04Z,42.805,6.029,13.2964,4.59962,2469.853,2019-12-13T14:30:34Z
2019-12-13T12:33:07Z,42.805,6.029,13.2961,4.59962,2469.844,2019-12-13T14:33:37Z
2019-12-13T12:36:10Z,42.805,6.029,13.2966,4.59963,2469.853,2019-12-13T14:36:40Z
2019-12-13T12:39:14Z,42.805,6.029,13.2963,4.59961,2469.853,2019-12-13T14:39:44Z
2019-12-13T12:42:17Z,42.805,6.029,13.2965,4.59962,2469.876,2019-12-13T14:42:47Z
2019-12-13T12:45:20Z,42.805,6.029,13.2963,4.59961,2469.821,2019-12-13T14:45:50Z
2019-12-13T12:48:23Z,42.805,6.029,13.2964,4.59962,2469.839,2019-12-13T14:48:53Z
2019-12-13T12:51:26Z,42.805,6.029,13.2962,4.59961,2469.853,2019-12-13T14:51:56Z
2019-12-13T12:54:30Z,42.805,6.029,13.2962,4.59961,2469.853,2019-12-13T14:55:00Z
2019-12-13T12:57:33Z,42.805,6.029,13.2958,4.59962,2469.876,2019-12-13T14:58:03Z
2019-12-13T13:00:36Z,42.805,6.029,13.2960,4.59962,2469.876,2019-12-13T15:01:06Z
2019-12-13T13:03:39Z,42.805,6.029,13.2967,4.59962,2469.853,2019-12-13T15:04:09Z
2019-12-13T13:06:42Z,42.805,6.029,13.2965,4.59961,2469.853,2019-12-13T15:07:12Z
2019-12-13T13:09:46Z,42.805,6.029,13.2964,4.59964,2469.867,2019-12-13T15:10:15Z
2019-12-13T13:12:49Z,42.805,6.029,13.2967,4.59962,2469.83,2019-12-13T15:13:19Z
2019-12-13T13:15:52Z,42.805,6.029,13.2960,4.59964,2469.867,2019-12-13T15:16:22Z
2019-12-13T13:18:55Z,42.805,6.029,13.2967,4.59963,2469.853,2019-12-13T15:19:25Z
2019-12-13T13:21:58Z,42.805,6.029,13.2965,4.59962,2469.867,2019-12-13T15:22:28Z
2019-12-13T13:25:02Z,42.805,6.029,13.2964,4.59962,2469.821,2019-12-13T15:25:32Z
2019-12-13T13:28:05Z,42.805,6.029,13.2964,4.59961,2469.806,2019-12-13T15:28:35Z
2019-12-13T13:31:08Z,42.805,6.029,13.2962,4.59963,2469.83,2019-12-13T15:31:38Z
2019-12-13T13:34:11Z,42.805,6.029,13.2962,4.59961,2469.83,2019-12-13T15:34:41Z
2019-12-13T13:37:14Z,42.805,6.029,13.2963,4.59961,2469.821,2019-12-13T15:37:44Z
2019-12-13T13:40:18Z,42.805,6.029,13.2962,4.59961,2469.83,2019-12-13T15:40:48Z
2019-12-13T13:43:21Z,42.805,6.029,13.2964,4.59962,2469.844,2019-12-13T15:43:51Z
2019-12-13T13:46:24Z,42.805,6.029,13.2967,4.59961,2469.844,2019-12-13T15:46:54Z
2019-12-13T13:49:27Z,42.805,6.029,13.2963,4.59962,2469.806,2019-12-13T15:49:57Z
2019-12-13T13:52:30Z,42.805,6.029,13.2964,4.59962,2469.821,2019-12-13T15:53:00Z
2019-12-13T13:55:33Z,42.805,6.029,13.2964,4.59962,2469.821,2019-12-13T15:56:03Z
2019-12-13T13:58:37Z,42.805,6.029,13.2965,4.59962,2469.821,2019-12-13T15:59:07Z
2019-12-13T14:01:40Z,42.805,6.029,13.2960,4.59964,2469.806,2019-12-13T16:02:10Z
2019-12-13T14:04:43Z,42.805,6.029,13.2965,4.59964,2469.821,2019-12-13T16:05:13Z
2019-12-13T14:07:46Z,42.805,6.029,13.2964,4.59962,2469.83,2019-12-13T16:08:16Z
2019-12-13T14:10:50Z,42.805,6.029,13.2959,4.59962,2469.806,2019-12-13T16:11:19Z
2019-12-13T14:13:53Z,42.805,6.029,13.2965,4.59961,2469.806,2019-12-13T16:14:23Z
2019-12-13T14:16:56Z,42.805,6.029,13.2964,4.59961,2469.806,2019-12-13T16:17:26Z
2019-12-13T14:19:59Z,42.805,6.029,13.2964,4.59962,2469.773,2019-12-13T16:20:29Z
2019-12-13T14:23:03Z,42.805,6.029,13.2964,4.59963,2469.797,2019-12-13T16:23:32Z
2019-12-13T14:26:06Z,42.805,6.029,13.2965,4.59963,2469.783,2019-12-13T16:26:36Z
2019-12-13T14:29:09Z,42.805,6.029,13.2964,4.59961,2469.783,2019-12-13T16:29:39Z
2019-12-13T14:32:12Z,42.805,6.029,13.2961,4.59961,2469.821,2019-12-13T16:32:42Z
2019-12-13T14:35:15Z,42.805,6.029,13.2959,4.59961,2469.806,2019-12-13T16:35:45Z
2019-12-13T14:38:18Z,42.805,6.029,13.2964,4.59962,2469.806,2019-12-13T16:38:48Z
2019-12-13T14:41:22Z,42.805,6.029,13.2964,4.59961,2469.783,2019-12-13T16:41:52Z
2019-12-13T14:44:25Z,42.805,6.029,13.2964,4.59961,2469.806,2019-12-13T16:44:55Z
2019-12-13T14:47:28Z,42.805,6.029,13.2968,4.59962,2469.797,2019-12-13T16:47:58Z
2019-12-13T14:50:31Z,42.805,6.029,13.2968,4.59962,2469.797,2019-12-13T16:51:01Z
2019-12-13T14:53:34Z,42.805,6.029,13.2963,4.59962,2469.83,2019-12-13T16:54:04Z
2019-12-13T14:56:38Z,42.805,6.029,13.2967,4.59963,2469.821,2019-12-13T16:57:08Z
2019-12-13T14:59:41Z,42.805,6.029,13.2965,4.59963,2469.793,2019-12-13T17:00:11Z
2019-12-13T15:02:44Z,42.805,6.029,13.2964,4.59961,2469.806,2019-12-13T17:03:14Z